Find Starlink 30301

NORAD ID: 57666 Int'l Des: 2023-124 Owner: SPXS Country: US Constellation: starlink operational
LEOCIRCULAR

实时位置

正在加载3D地球...

关于 Starlink 30301

正在加载描述...

即将过境

Passes for default location (London). Set your location on the main map for personalized predictions.

高度历史

Loading altitude history...

两行轨道根数

1 57666U 23124D 26126.03149029 .00025849 00000-0 83742-3 0 9992
2 57666 53.1611 2.1516 0002073 96.0420 264.0818 15.31869563151459
Epoch: May 6, 2026 • Age: 11 hours

当前状态

高度 482.8 km
速度 7.62 km/s
星下点 -35.95°S, 69.66°W
发射日期 Aug 22, 2023
运行时间 2.7 years
类型 internet

技术详情

分类 Payload
质量 730.00 kg
干质量 700.00 kg
总质量 730.00 kg
长度 0.30 m
直径 4.10 m
跨度 29.00 m
形状 Box + pan
制造商 SPXS
平台类型 Starlink V2M
阶段状态 In Orbit
所有者/国家 SPXS/US

Most Searched